Information on these data can be found in provided Readme document
Contact Info: Zachary Fasnacht (zachary.fasnacht@ssaihq.com); Nickolay Krotkov (nickolay.a.krotkov@nasa.gov); Lok Lamsal (lok.lamsal@nasa.gov)

FillValue: -999.
ScaleFactor: 1e15
Units: molecules/cm^2

Date(yyyy-mm-dd),City,Country,LonCenter,LatCenter,BoundingCoordinates,Median,Q1,Q3,Mean,Baseline_Median,Baseline_Q1,Baseline_Q3,Baseline_Mean,NumGoodSamples,NumTotalSamples
2015-01-01,Bordeaux,France,-0.5167,44.8333,[-1.0167000000000002 44.3333 -0.016700000000000048 45.3333],2.103,1.488,3.16,2.312,2.166,1.175,3.239,2.202,104.0,619.0
2015-01-02,Bordeaux,France,-0.5167,44.8333,[-1.0167000000000002 44.3333 -0.016700000000000048 45.3333],2.093,1.481,2.809,2.246,2.183,1.25,3.178,2.235,89.0,617.0
2015-01-03,Bordeaux,France,-0.5167,44.8333,[-1.0167000000000002 44.3333 -0.016700000000000048 45.3333],2.093,1.481,2.809,2.246,1.903,1.086,2.821,1.973,89.0,620.0
2015-01-04,Bordeaux,France,-0.5167,44.8333,[-1.0167000000000002 44.3333 -0.016700000000000048 45.3333],2.093,1.481,2.809,2.246,1.942,1.061,2.777,1.955,89.0,617.0
2015-01-05,Bordeaux,France,-0.5167,44.8333,[-1.0167000000000002 44.3333 -0.016700000000000048 45.3333],2.093,1.488,2.705,2.196,1.851,1.019,2.632,1.884,97.0,627.0
2015-01-06,Bordeaux,France,-0.5167,44.8333,[-1.0167000000000002 44.3333 -0.016700000000000048 45.3333],2.093,1.452,2.74,2.267,1.786,0.904,2.744,1.862,96.0,619.0
2015-01-07,Bordeaux,France,-0.5167,44.8333,[-1.0167000000000002 44.3333 -0.016700000000000048 45.3333],1.771,0.92,2.355,1.754,1.737,0.729,2.652,1.741,75.0,624.0
2015-01-08,Bordeaux,France,-0.5167,44.8333,[-1.0167000000000002 44.3333 -0.016700000000000048 45.3333],1.771,0.92,2.355,1.754,1.619,0.674,2.529,1.617,75.0,626.0
2015-01-09,Bordeaux,France,-0.5167,44.8333,[-1.0167000000000002 44.3333 -0.016700000000000048 45.3333],1.771,0.92,2.379,1.746,1.641,0.657,2.609,1.662,43.0,618.0
2015-01-10,Bordeaux,France,-0.5167,44.8333,[-1.0167000000000002 44.3333 -0.016700000000000048 45.3333],1.771,0.92,2.379,1.746,1.6,0.561,2.564,1.59,43.0,575.0
2015-01-11,Bordeaux,France,-0.5167,44.8333,[-1.0167000000000002 44.3333 -0.016700000000000048 45.3333],1.771,0.92,2.379,1.746,1.502,0.562,2.425,1.525,43.0,576.0
2015-01-12,Bordeaux,France,-0.5167,44.8333,[-1.0167000000000002 44.3333 -0.016700000000000048 45.3333],1.771,0.92,2.379,1.746,1.488,0.548,2.407,1.488,43.0,579.0
2015-01-13,Bordeaux,France,-0.5167,44.8333,[-1.0167000000000002 44.3333 -0.016700000000000048 45.3333],1.917,0.92,2.418,1.911,1.553,0.592,2.498,1.598,37.0,573.0
2015-01-14,Bordeaux,France,-0.5167,44.8333,[-1.0167000000000002 44.3333 -0.016700000000000048 45.3333],1.771,0.92,2.418,1.897,1.538,0.59,2.485,1.601,34.0,585.0
2015-01-15,Bordeaux,France,-0.5167,44.8333,[-1.0167000000000002 44.3333 -0.016700000000000048 45.3333],1.771,0.92,2.379,1.71,1.544,0.598,2.476,1.577,47.0,579.0
2015-01-16,Bordeaux,France,-0.5167,44.8333,[-1.0167000000000002 44.3333 -0.016700000000000048 45.3333],1.771,0.92,2.379,1.71,1.548,0.629,2.476,1.579,47.0,570.0
2015-01-17,Bordeaux,France,-0.5167,44.8333,[-1.0167000000000002 44.3333 -0.016700000000000048 45.3333],1.771,0.92,2.379,1.71,1.649,0.692,2.703,1.789,47.0,577.0
2015-01-18,Bordeaux,France,-0.5167,44.8333,[-1.0167000000000002 44.3333 -0.016700000000000048 45.3333],1.771,0.92,2.379,1.71,1.63,0.647,2.883,1.81,47.0,574.0
2015-01-19,Bordeaux,France,-0.5167,44.8333,[-1.0167000000000002 44.3333 -0.016700000000000048 45.3333],1.771,0.92,2.379,1.71,1.913,0.774,3.019,1.949,47.0,574.0
2015-01-20,Bordeaux,France,-0.5167,44.8333,[-1.0167000000000002 44.3333 -0.016700000000000048 45.3333],1.511,0.402,2.424,1.588,1.898,0.721,3.045,1.946,28.0,571.0
2015-01-21,Bordeaux,France,-0.5167,44.8333,[-1.0167000000000002 44.3333 -0.016700000000000048 45.3333],0.92,0.402,1.771,1.211,1.865,0.741,2.987,1.967,18.0,581.0
2015-01-22,Bordeaux,France,-0.5167,44.8333,[-1.0167000000000002 44.3333 -0.016700000000000048 45.3333],0.768,-0.146,1.566,0.905,1.975,0.961,3.025,2.028,14.0,572.0
2015-01-23,Bordeaux,France,-0.5167,44.8333,[-1.0167000000000002 44.3333 -0.016700000000000048 45.3333],0.768,-0.146,1.566,0.905,2.033,1.028,3.088,2.103,14.0,576.0
2015-01-24,Bordeaux,France,-0.5167,44.8333,[-1.0167000000000002 44.3333 -0.016700000000000048 45.3333],1.453,0.123,2.387,1.192,2.034,1.117,3.056,2.048,20.0,580.0
2015-01-25,Bordeaux,France,-0.5167,44.8333,[-1.0167000000000002 44.3333 -0.016700000000000048 45.3333],1.453,0.123,2.387,1.192,2.271,1.229,3.164,2.211,20.0,618.0
2015-01-26,Bordeaux,France,-0.5167,44.8333,[-1.0167000000000002 44.3333 -0.016700000000000048 45.3333],1.453,0.123,2.387,1.215,2.244,1.222,3.156,2.204,21.0,619.0
2015-01-27,Bordeaux,France,-0.5167,44.8333,[-1.0167000000000002 44.3333 -0.016700000000000048 45.3333],1.453,0.123,2.387,1.215,2.139,1.31,3.046,2.132,21.0,619.0
2015-01-28,Bordeaux,France,-0.5167,44.8333,[-1.0167000000000002 44.3333 -0.016700000000000048 45.3333],1.453,0.123,2.387,1.095,2.095,1.378,3.072,2.167,20.0,621.0
2015-01-29,Bordeaux,France,-0.5167,44.8333,[-1.0167000000000002 44.3333 -0.016700000000000048 45.3333],1.532,0.768,2.777,1.66,2.089,1.397,3.085,2.185,32.0,616.0
2015-01-30,Bordeaux,France,-0.5167,44.8333,[-1.0167000000000002 44.3333 -0.016700000000000048 45.3333],2.063,1.453,3.309,2.484,2.154,1.44,3.197,2.265,19.0,627.0
2015-01-31,Bordeaux,France,-0.5167,44.8333,[-1.0167000000000002 44.3333 -0.016700000000000048 45.3333],3.309,2.021,5.504,3.825,2.233,1.438,3.352,2.345,42.0,621.0
2015-02-01,Bordeaux,France,-0.5167,44.8333,[-1.0167000000000002 44.3333 -0.016700000000000048 45.3333],3.309,2.021,5.504,3.825,2.173,1.234,3.192,2.247,42.0,610.0
2015-02-02,Bordeaux,France,-0.5167,44.8333,[-1.0167000000000002 44.3333 -0.016700000000000048 45.3333],2.67,1.457,3.424,2.861,2.459,1.44,3.294,2.492,84.0,618.0
2015-02-03,Bordeaux,France,-0.5167,44.8333,[-1.0167000000000002 44.3333 -0.016700000000000048 45.3333],2.67,1.457,3.424,2.861,2.363,1.343,3.242,2.423,84.0,617.0
2015-02-04,Bordeaux,France,-0.5167,44.8333,[-1.0167000000000002 44.3333 -0.016700000000000048 45.3333],2.947,1.753,4.235,3.084,2.389,1.392,3.522,2.52,119.0,618.0
2015-02-05,Bordeaux,France,-0.5167,44.8333,[-1.0167000000000002 44.3333 -0.016700000000000048 45.3333],2.947,1.753,4.235,3.084,2.269,1.284,3.444,2.435,119.0,616.0
2015-02-06,Bordeaux,France,-0.5167,44.8333,[-1.0167000000000002 44.3333 -0.016700000000000048 45.3333],3.136,1.884,4.239,3.211,2.427,1.376,3.413,2.487,130.0,627.0
2015-02-07,Bordeaux,France,-0.5167,44.8333,[-1.0167000000000002 44.3333 -0.016700000000000048 45.3333],2.998,1.798,4.239,3.177,2.296,1.316,3.437,2.435,139.0,618.0
2015-02-08,Bordeaux,France,-0.5167,44.8333,[-1.0167000000000002 44.3333 -0.016700000000000048 45.3333],3.136,1.884,4.239,3.231,2.333,1.341,3.331,2.422,133.0,617.0
2015-02-09,Bordeaux,France,-0.5167,44.8333,[-1.0167000000000002 44.3333 -0.016700000000000048 45.3333],3.11,1.884,4.239,3.215,2.367,1.365,3.345,2.411,144.0,620.0
2015-02-10,Bordeaux,France,-0.5167,44.8333,[-1.0167000000000002 44.3333 -0.016700000000000048 45.3333],3.11,1.884,4.239,3.215,2.289,1.334,3.299,2.411,143.0,613.0
2015-02-11,Bordeaux,France,-0.5167,44.8333,[-1.0167000000000002 44.3333 -0.016700000000000048 45.3333],3.11,1.884,4.239,3.215,2.405,1.456,3.404,2.53,143.0,571.0
2015-02-12,Bordeaux,France,-0.5167,44.8333,[-1.0167000000000002 44.3333 -0.016700000000000048 45.3333],3.11,1.884,4.239,3.215,2.285,1.354,3.381,2.467,143.0,572.0
2015-02-13,Bordeaux,France,-0.5167,44.8333,[-1.0167000000000002 44.3333 -0.016700000000000048 45.3333],3.136,1.884,4.239,3.216,2.307,1.389,3.407,2.474,131.0,575.0
2015-02-14,Bordeaux,France,-0.5167,44.8333,[-1.0167000000000002 44.3333 -0.016700000000000048 45.3333],2.998,1.798,4.239,3.17,2.329,1.36,3.402,2.479,139.0,572.0
2015-02-15,Bordeaux,France,-0.5167,44.8333,[-1.0167000000000002 44.3333 -0.016700000000000048 45.3333],2.367,1.184,3.986,2.56,2.185,1.247,3.335,2.36,134.0,584.0
2015-02-16,Bordeaux,France,-0.5167,44.8333,[-1.0167000000000002 44.3333 -0.016700000000000048 45.3333],2.234,1.116,3.678,2.452,2.176,1.213,3.307,2.347,155.0,581.0
2015-02-17,Bordeaux,France,-0.5167,44.8333,[-1.0167000000000002 44.3333 -0.016700000000000048 45.3333],2.204,1.095,4.164,2.498,2.086,1.218,3.233,2.282,113.0,572.0
2015-02-18,Bordeaux,France,-0.5167,44.8333,[-1.0167000000000002 44.3333 -0.016700000000000048 45.3333],2.204,1.095,4.164,2.498,2.036,1.124,3.178,2.202,113.0,576.0
2015-02-19,Bordeaux,France,-0.5167,44.8333,[-1.0167000000000002 44.3333 -0.016700000000000048 45.3333],1.295,0.624,3.11,1.943,1.972,1.124,3.066,2.125,78.0,573.0
2015-02-20,Bordeaux,France,-0.5167,44.8333,[-1.0167000000000002 44.3333 -0.016700000000000048 45.3333],1.243,0.624,2.569,1.816,1.877,1.129,2.873,2.077,113.0,573.0
2015-02-21,Bordeaux,France,-0.5167,44.8333,[-1.0167000000000002 44.3333 -0.016700000000000048 45.3333],1.121,0.48,2.253,1.442,1.917,1.11,2.872,2.056,102.0,569.0
2015-02-22,Bordeaux,France,-0.5167,44.8333,[-1.0167000000000002 44.3333 -0.016700000000000048 45.3333],1.112,0.411,2.235,1.405,1.917,1.109,2.872,2.063,93.0,580.0
2015-02-23,Bordeaux,France,-0.5167,44.8333,[-1.0167000000000002 44.3333 -0.016700000000000048 45.3333],1.112,0.411,2.316,1.42,1.897,1.057,2.901,2.059,103.0,575.0
2015-02-24,Bordeaux,France,-0.5167,44.8333,[-1.0167000000000002 44.3333 -0.016700000000000048 45.3333],1.112,0.411,2.096,1.289,1.827,1.011,2.87,1.988,92.0,575.0
2015-02-25,Bordeaux,France,-0.5167,44.8333,[-1.0167000000000002 44.3333 -0.016700000000000048 45.3333],1.243,0.624,2.438,1.521,1.829,1.022,2.892,1.942,121.0,580.0
2015-02-26,Bordeaux,France,-0.5167,44.8333,[-1.0167000000000002 44.3333 -0.016700000000000048 45.3333],1.243,0.624,2.438,1.521,1.817,0.917,2.788,1.898,121.0,618.0
2015-02-27,Bordeaux,France,-0.5167,44.8333,[-1.0167000000000002 44.3333 -0.016700000000000048 45.3333],1.243,0.535,2.363,1.43,1.808,0.917,2.747,1.862,159.0,624.0
2015-02-28,Bordeaux,France,-0.5167,44.8333,[-1.0167000000000002 44.3333 -0.016700000000000048 45.3333],1.243,0.535,2.363,1.43,1.712,0.76,2.627,1.74,159.0,624.0
2015-03-01,Bordeaux,France,-0.5167,44.8333,[-1.0167000000000002 44.3333 -0.016700000000000048 45.3333],1.243,0.519,2.285,1.379,1.573,0.674,2.495,1.627,181.0,627.0
2015-03-02,Bordeaux,France,-0.5167,44.8333,[-1.0167000000000002 44.3333 -0.016700000000000048 45.3333],1.542,0.554,2.367,1.468,1.588,0.68,2.44,1.594,174.0,622.0
2015-03-03,Bordeaux,France,-0.5167,44.8333,[-1.0167000000000002 44.3333 -0.016700000000000048 45.3333],1.55,0.619,2.438,1.638,1.59,0.7,2.469,1.645,162.0,634.0
2015-03-04,Bordeaux,France,-0.5167,44.8333,[-1.0167000000000002 44.3333 -0.016700000000000048 45.3333],1.611,0.668,2.604,1.777,1.523,0.594,2.417,1.59,186.0,628.0
2015-03-05,Bordeaux,France,-0.5167,44.8333,[-1.0167000000000002 44.3333 -0.016700000000000048 45.3333],1.607,0.668,2.563,1.766,1.564,0.667,2.476,1.639,191.0,621.0
2015-03-06,Bordeaux,France,-0.5167,44.8333,[-1.0167000000000002 44.3333 -0.016700000000000048 45.3333],1.59,0.668,2.553,1.751,1.436,0.618,2.338,1.521,198.0,628.0
2015-03-07,Bordeaux,France,-0.5167,44.8333,[-1.0167000000000002 44.3333 -0.016700000000000048 45.3333],1.652,0.668,2.756,1.79,1.463,0.689,2.394,1.537,163.0,626.0
2015-03-08,Bordeaux,France,-0.5167,44.8333,[-1.0167000000000002 44.3333 -0.016700000000000048 45.3333],1.652,0.668,2.756,1.796,1.445,0.674,2.38,1.516,166.0,626.0
2015-03-09,Bordeaux,France,-0.5167,44.8333,[-1.0167000000000002 44.3333 -0.016700000000000048 45.3333],1.652,0.668,2.756,1.796,1.457,0.702,2.42,1.54,166.0,623.0
2015-03-10,Bordeaux,France,-0.5167,44.8333,[-1.0167000000000002 44.3333 -0.016700000000000048 45.3333],1.576,0.656,2.438,1.701,1.458,0.686,2.38,1.537,176.0,632.0
2015-03-11,Bordeaux,France,-0.5167,44.8333,[-1.0167000000000002 44.3333 -0.016700000000000048 45.3333],1.576,0.656,2.438,1.701,1.464,0.653,2.397,1.551,176.0,626.0
2015-03-12,Bordeaux,France,-0.5167,44.8333,[-1.0167000000000002 44.3333 -0.016700000000000048 45.3333],1.443,0.535,2.285,1.602,1.418,0.617,2.353,1.524,147.0,627.0
2015-03-13,Bordeaux,France,-0.5167,44.8333,[-1.0167000000000002 44.3333 -0.016700000000000048 45.3333],1.443,0.535,2.285,1.602,1.471,0.604,2.431,1.559,147.0,629.0
2015-03-14,Bordeaux,France,-0.5167,44.8333,[-1.0167000000000002 44.3333 -0.016700000000000048 45.3333],1.545,0.547,2.431,1.779,1.635,0.769,2.543,1.702,109.0,617.0
2015-03-15,Bordeaux,France,-0.5167,44.8333,[-1.0167000000000002 44.3333 -0.016700000000000048 45.3333],1.545,0.547,2.431,1.779,1.721,0.814,2.613,1.769,109.0,574.0
2015-03-16,Bordeaux,France,-0.5167,44.8333,[-1.0167000000000002 44.3333 -0.016700000000000048 45.3333],1.748,0.793,3.904,2.119,1.828,0.933,2.809,1.851,79.0,574.0
2015-03-17,Bordeaux,France,-0.5167,44.8333,[-1.0167000000000002 44.3333 -0.016700000000000048 45.3333],1.783,0.886,3.904,2.212,1.93,1.057,2.839,1.919,68.0,577.0
2015-03-18,Bordeaux,France,-0.5167,44.8333,[-1.0167000000000002 44.3333 -0.016700000000000048 45.3333],1.546,0.793,2.677,1.956,1.957,1.042,2.713,1.913,66.0,571.0
2015-03-19,Bordeaux,France,-0.5167,44.8333,[-1.0167000000000002 44.3333 -0.016700000000000048 45.3333],1.292,0.036,1.958,1.345,2.027,1.086,2.675,1.929,42.0,585.0
2015-03-20,Bordeaux,France,-0.5167,44.8333,[-1.0167000000000002 44.3333 -0.016700000000000048 45.3333],1.292,0.036,2.052,1.379,2.0,1.07,2.654,1.926,37.0,580.0
2015-03-21,Bordeaux,France,-0.5167,44.8333,[-1.0167000000000002 44.3333 -0.016700000000000048 45.3333],1.368,0.036,1.958,1.406,2.081,1.173,2.659,1.967,30.0,568.0
2015-03-22,Bordeaux,France,-0.5167,44.8333,[-1.0167000000000002 44.3333 -0.016700000000000048 45.3333],1.368,0.036,1.958,1.406,2.019,1.139,2.656,1.946,30.0,572.0
2015-03-23,Bordeaux,France,-0.5167,44.8333,[-1.0167000000000002 44.3333 -0.016700000000000048 45.3333],1.292,0.036,1.958,1.358,2.023,1.14,2.688,1.953,27.0,570.0
2015-03-24,Bordeaux,France,-0.5167,44.8333,[-1.0167000000000002 44.3333 -0.016700000000000048 45.3333],1.292,0.036,1.958,1.358,2.035,1.153,2.668,1.924,27.0,569.0
2015-03-25,Bordeaux,France,-0.5167,44.8333,[-1.0167000000000002 44.3333 -0.016700000000000048 45.3333],2.677,2.058,4.302,3.361,2.064,1.191,2.642,1.945,7.0,565.0
2015-03-26,Bordeaux,France,-0.5167,44.8333,[-1.0167000000000002 44.3333 -0.016700000000000048 45.3333],0.676,-0.075,0.878,1.007,2.002,1.147,2.587,1.911,16.0,572.0
2015-03-27,Bordeaux,France,-0.5167,44.8333,[-1.0167000000000002 44.3333 -0.016700000000000048 45.3333],0.676,-0.015,0.878,0.977,2.029,1.225,2.642,1.964,18.0,564.0
2015-03-28,Bordeaux,France,-0.5167,44.8333,[-1.0167000000000002 44.3333 -0.016700000000000048 45.3333],0.676,-0.015,0.878,0.977,1.98,1.182,2.596,1.926,18.0,566.0
2015-03-29,Bordeaux,France,-0.5167,44.8333,[-1.0167000000000002 44.3333 -0.016700000000000048 45.3333],0.676,0.233,1.334,0.868,1.821,1.053,2.48,1.799,53.0,568.0
2015-03-30,Bordeaux,France,-0.5167,44.8333,[-1.0167000000000002 44.3333 -0.016700000000000048 45.3333],0.676,0.233,1.334,0.868,1.857,1.052,2.508,1.813,53.0,606.0
2015-03-31,Bordeaux,France,-0.5167,44.8333,[-1.0167000000000002 44.3333 -0.016700000000000048 45.3333],1.052,0.456,2.171,1.251,1.8,0.982,2.521,1.77,91.0,608.0
2015-04-01,Bordeaux,France,-0.5167,44.8333,[-1.0167000000000002 44.3333 -0.016700000000000048 45.3333],1.052,0.456,2.171,1.251,1.718,0.907,2.484,1.724,91.0,607.0
2015-04-02,Bordeaux,France,-0.5167,44.8333,[-1.0167000000000002 44.3333 -0.016700000000000048 45.3333],1.334,0.563,2.454,1.461,1.691,0.906,2.456,1.677,122.0,611.0
2015-04-03,Bordeaux,France,-0.5167,44.8333,[-1.0167000000000002 44.3333 -0.016700000000000048 45.3333],1.334,0.563,2.454,1.461,1.647,0.954,2.418,1.662,122.0,601.0
2015-04-04,Bordeaux,France,-0.5167,44.8333,[-1.0167000000000002 44.3333 -0.016700000000000048 45.3333],1.334,0.563,2.454,1.461,1.616,0.948,2.397,1.649,122.0,617.0
2015-04-05,Bordeaux,France,-0.5167,44.8333,[-1.0167000000000002 44.3333 -0.016700000000000048 45.3333],1.221,0.533,2.354,1.369,1.593,0.928,2.349,1.619,146.0,614.0
2015-04-06,Bordeaux,France,-0.5167,44.8333,[-1.0167000000000002 44.3333 -0.016700000000000048 45.3333],1.198,0.533,2.354,1.37,1.592,0.899,2.341,1.616,149.0,607.0
2015-04-07,Bordeaux,France,-0.5167,44.8333,[-1.0167000000000002 44.3333 -0.016700000000000048 45.3333],1.349,0.718,2.327,1.472,1.538,0.925,2.261,1.539,189.0,612.0
2015-04-08,Bordeaux,France,-0.5167,44.8333,[-1.0167000000000002 44.3333 -0.016700000000000048 45.3333],1.349,0.718,2.327,1.472,1.554,0.937,2.273,1.555,189.0,651.0
2015-04-09,Bordeaux,France,-0.5167,44.8333,[-1.0167000000000002 44.3333 -0.016700000000000048 45.3333],1.349,0.718,2.327,1.472,1.51,0.883,2.214,1.507,189.0,680.0
2015-04-10,Bordeaux,France,-0.5167,44.8333,[-1.0167000000000002 44.3333 -0.016700000000000048 45.3333],1.44,0.826,2.354,1.545,1.484,0.824,2.171,1.473,180.0,679.0
2015-04-11,Bordeaux,France,-0.5167,44.8333,[-1.0167000000000002 44.3333 -0.016700000000000048 45.3333],1.501,0.826,2.354,1.55,1.387,0.718,2.167,1.395,178.0,686.0
2015-04-12,Bordeaux,France,-0.5167,44.8333,[-1.0167000000000002 44.3333 -0.016700000000000048 45.3333],1.433,0.783,2.354,1.532,1.474,0.794,2.219,1.463,181.0,679.0
2015-04-13,Bordeaux,France,-0.5167,44.8333,[-1.0167000000000002 44.3333 -0.016700000000000048 45.3333],1.901,1.101,2.502,1.772,1.579,0.864,2.276,1.55,151.0,681.0
2015-04-14,Bordeaux,France,-0.5167,44.8333,[-1.0167000000000002 44.3333 -0.016700000000000048 45.3333],1.801,1.12,2.442,1.722,1.527,0.833,2.217,1.51,185.0,684.0
2015-04-15,Bordeaux,France,-0.5167,44.8333,[-1.0167000000000002 44.3333 -0.016700000000000048 45.3333],1.801,1.185,2.323,1.711,1.552,0.835,2.226,1.507,147.0,678.0
2015-04-16,Bordeaux,France,-0.5167,44.8333,[-1.0167000000000002 44.3333 -0.016700000000000048 45.3333],1.801,1.185,2.323,1.711,1.566,0.856,2.223,1.521,147.0,636.0
2015-04-17,Bordeaux,France,-0.5167,44.8333,[-1.0167000000000002 44.3333 -0.016700000000000048 45.3333],1.647,1.101,2.105,1.56,1.522,0.795,2.294,1.502,109.0,685.0
2015-04-18,Bordeaux,France,-0.5167,44.8333,[-1.0167000000000002 44.3333 -0.016700000000000048 45.3333],1.647,1.041,2.208,1.598,1.457,0.779,2.294,1.498,130.0,690.0
2015-04-19,Bordeaux,France,-0.5167,44.8333,[-1.0167000000000002 44.3333 -0.016700000000000048 45.3333],1.647,1.04,2.208,1.587,1.501,0.771,2.276,1.513,131.0,711.0
2015-04-20,Bordeaux,France,-0.5167,44.8333,[-1.0167000000000002 44.3333 -0.016700000000000048 45.3333],1.724,1.236,2.286,1.727,1.506,0.789,2.296,1.535,107.0,758.0
2015-04-21,Bordeaux,France,-0.5167,44.8333,[-1.0167000000000002 44.3333 -0.016700000000000048 45.3333],1.724,1.209,2.272,1.683,1.504,0.791,2.274,1.537,111.0,771.0
2015-04-22,Bordeaux,France,-0.5167,44.8333,[-1.0167000000000002 44.3333 -0.016700000000000048 45.3333],1.647,1.182,2.173,1.587,1.559,0.826,2.268,1.565,76.0,761.0
2015-04-23,Bordeaux,France,-0.5167,44.8333,[-1.0167000000000002 44.3333 -0.016700000000000048 45.3333],1.647,1.182,2.173,1.587,1.556,0.814,2.256,1.57,76.0,728.0
2015-04-24,Bordeaux,France,-0.5167,44.8333,[-1.0167000000000002 44.3333 -0.016700000000000048 45.3333],1.647,1.182,2.173,1.587,1.707,0.952,2.404,1.688,76.0,699.0
2015-04-25,Bordeaux,France,-0.5167,44.8333,[-1.0167000000000002 44.3333 -0.016700000000000048 45.3333],1.647,1.182,2.173,1.587,1.751,1.041,2.481,1.76,76.0,703.0
2015-04-26,Bordeaux,France,-0.5167,44.8333,[-1.0167000000000002 44.3333 -0.016700000000000048 45.3333],1.647,1.182,2.173,1.587,1.665,1.004,2.406,1.721,76.0,703.0
2015-04-27,Bordeaux,France,-0.5167,44.8333,[-1.0167000000000002 44.3333 -0.016700000000000048 45.3333],1.647,1.185,2.173,1.634,1.636,0.969,2.397,1.692,73.0,714.0
2015-04-28,Bordeaux,France,-0.5167,44.8333,[-1.0167000000000002 44.3333 -0.016700000000000048 45.3333],1.445,0.87,2.016,1.433,1.59,0.923,2.316,1.622,82.0,710.0
2015-04-29,Bordeaux,France,-0.5167,44.8333,[-1.0167000000000002 44.3333 -0.016700000000000048 45.3333],1.114,0.385,1.718,1.198,1.523,0.819,2.336,1.572,51.0,715.0
2015-04-30,Bordeaux,France,-0.5167,44.8333,[-1.0167000000000002 44.3333 -0.016700000000000048 45.3333],1.573,0.889,2.639,1.684,1.495,0.824,2.332,1.554,85.0,718.0
2015-05-01,Bordeaux,France,-0.5167,44.8333,[-1.0167000000000002 44.3333 -0.016700000000000048 45.3333],1.573,0.889,2.639,1.684,1.49,0.824,2.313,1.543,85.0,755.0
2015-05-02,Bordeaux,France,-0.5167,44.8333,[-1.0167000000000002 44.3333 -0.016700000000000048 45.3333],1.428,0.834,2.507,1.594,1.469,0.861,2.283,1.547,95.0,709.0
2015-05-03,Bordeaux,France,-0.5167,44.8333,[-1.0167000000000002 44.3333 -0.016700000000000048 45.3333],1.428,0.889,2.471,1.527,1.425,0.82,2.226,1.497,74.0,709.0
2015-05-04,Bordeaux,France,-0.5167,44.8333,[-1.0167000000000002 44.3333 -0.016700000000000048 45.3333],1.328,0.701,2.036,1.435,1.396,0.771,2.175,1.47,96.0,679.0
2015-05-05,Bordeaux,France,-0.5167,44.8333,[-1.0167000000000002 44.3333 -0.016700000000000048 45.3333],1.324,0.701,2.036,1.414,1.407,0.789,2.2,1.492,102.0,638.0
2015-05-06,Bordeaux,France,-0.5167,44.8333,[-1.0167000000000002 44.3333 -0.016700000000000048 45.3333],1.226,0.583,1.937,1.306,1.325,0.718,2.136,1.415,119.0,628.0
2015-05-07,Bordeaux,France,-0.5167,44.8333,[-1.0167000000000002 44.3333 -0.016700000000000048 45.3333],1.209,0.583,1.937,1.304,1.318,0.74,2.204,1.453,114.0,624.0
2015-05-08,Bordeaux,France,-0.5167,44.8333,[-1.0167000000000002 44.3333 -0.016700000000000048 45.3333],1.209,0.583,1.937,1.304,1.321,0.723,2.184,1.42,114.0,615.0
2015-05-09,Bordeaux,France,-0.5167,44.8333,[-1.0167000000000002 44.3333 -0.016700000000000048 45.3333],1.22,0.583,2.01,1.308,1.332,0.75,2.062,1.377,117.0,641.0
2015-05-10,Bordeaux,France,-0.5167,44.8333,[-1.0167000000000002 44.3333 -0.016700000000000048 45.3333],1.22,0.583,2.01,1.308,1.315,0.707,2.035,1.358,117.0,676.0
2015-05-11,Bordeaux,France,-0.5167,44.8333,[-1.0167000000000002 44.3333 -0.016700000000000048 45.3333],1.025,0.467,1.837,1.147,1.255,0.666,1.982,1.307,153.0,703.0
2015-05-12,Bordeaux,France,-0.5167,44.8333,[-1.0167000000000002 44.3333 -0.016700000000000048 45.3333],1.025,0.467,1.837,1.147,1.264,0.657,1.996,1.304,153.0,697.0
2015-05-13,Bordeaux,France,-0.5167,44.8333,[-1.0167000000000002 44.3333 -0.016700000000000048 45.3333],1.003,0.468,1.837,1.156,1.234,0.622,2.011,1.291,149.0,709.0
2015-05-14,Bordeaux,France,-0.5167,44.8333,[-1.0167000000000002 44.3333 -0.016700000000000048 45.3333],1.001,0.467,1.837,1.125,1.28,0.688,2.006,1.329,174.0,700.0
2015-05-15,Bordeaux,France,-0.5167,44.8333,[-1.0167000000000002 44.3333 -0.016700000000000048 45.3333],0.855,0.355,1.582,0.957,1.279,0.665,2.052,1.322,153.0,700.0
2015-05-16,Bordeaux,France,-0.5167,44.8333,[-1.0167000000000002 44.3333 -0.016700000000000048 45.3333],0.855,0.355,1.582,0.953,1.328,0.706,2.07,1.36,154.0,704.0
2015-05-17,Bordeaux,France,-0.5167,44.8333,[-1.0167000000000002 44.3333 -0.016700000000000048 45.3333],0.854,0.355,1.582,0.959,1.303,0.666,2.056,1.334,144.0,696.0
2015-05-18,Bordeaux,France,-0.5167,44.8333,[-1.0167000000000002 44.3333 -0.016700000000000048 45.3333],0.854,0.355,1.582,0.959,1.358,0.726,2.08,1.368,144.0,654.0
2015-05-19,Bordeaux,France,-0.5167,44.8333,[-1.0167000000000002 44.3333 -0.016700000000000048 45.3333],0.781,0.264,1.36,0.878,1.372,0.744,2.053,1.375,121.0,666.0
2015-05-20,Bordeaux,France,-0.5167,44.8333,[-1.0167000000000002 44.3333 -0.016700000000000048 45.3333],0.98,0.467,1.681,1.056,1.378,0.776,2.021,1.385,152.0,667.0
2015-05-21,Bordeaux,France,-0.5167,44.8333,[-1.0167000000000002 44.3333 -0.016700000000000048 45.3333],1.029,0.407,1.774,1.091,1.468,0.824,2.117,1.459,159.0,698.0
2015-05-22,Bordeaux,France,-0.5167,44.8333,[-1.0167000000000002 44.3333 -0.016700000000000048 45.3333],1.259,0.599,1.793,1.224,1.492,0.807,2.096,1.449,189.0,744.0
2015-05-23,Bordeaux,France,-0.5167,44.8333,[-1.0167000000000002 44.3333 -0.016700000000000048 45.3333],1.244,0.582,1.793,1.201,1.516,0.816,2.144,1.475,193.0,759.0
2015-05-24,Bordeaux,France,-0.5167,44.8333,[-1.0167000000000002 44.3333 -0.016700000000000048 45.3333],1.235,0.582,1.793,1.184,1.476,0.775,2.128,1.449,204.0,731.0
2015-05-25,Bordeaux,France,-0.5167,44.8333,[-1.0167000000000002 44.3333 -0.016700000000000048 45.3333],1.235,0.582,1.793,1.184,1.468,0.76,2.135,1.453,204.0,698.0